Weather in Melnikovo

Russia / Saint-Petersburg and Leningrad Oblast     60°55′21″N   29°45′41″E
temp.,
°C
wind,
m/s
gust,
m/s
humid.,
%
clouds,
%
prec.,
mm/h
press.,
hPa
HPBL,
m
5 march, fri
fri500:00−7nw289550 0.0 1005336
03:00−8nw389361 0.0 1007340
06:00−9nw389589 0.1 1007279
09:00−10nw279588 0.1 1009275
12:00−6nw258897 0.0 1011436
15:00−4nw368799 0.1 1012671
18:00−7nw279084 0.1 1013224
21:00−10nw239142 0.1 101545
6 march, sat
sat600:00−11wnw22940 0.0 101627
03:00−11w23950 0.0 101635
06:00−12wsw23960 0.0 101473
09:00−9sw310938 0.0 1013274
12:00−3sw5117369 0.0 10081029
15:00−3ssw8169184 0.6 10021211
18:00−1sw71395100 2.6 995944
21:000wsw61489100 4.1 9901044
7 march, sun
sun700:00−3wnw41278100 1.6 989646
03:00−8w4128290 1.6 989432
06:00−9wsw5117836 0.1 989783
09:00−10w4108567 0.1 989577
12:00−8nw368396 0.1 990683
15:00−6nnw477295 0.1 992966
18:00−8nnw4108446 0.0 995878
21:00−8nne5129173 0.1 997782
8 march, mon
mon800:00−10n51290100 0.2 1001749
03:00−13n51387100 0.3 1004659
06:00−15n41290100 0.0 1007598
09:00−16n51189100 0.0 1010576
12:00−14n498698 0.0 1012560
15:00−12n378597 0.0 1014545
18:00−14nnw278866 0.0 1015354
21:00−18n239233 0.0 101623
9 march, tue
tue900:00−18n119369 0.0 101620
03:00−17sse119385 0.0 101521
06:00−15ese2495100 0.0 1014141
09:00−13ese3793100 0.1 1014383
12:00−13e4789100 0.2 1015508
15:00−12e478696 0.2 1017510
18:00−14e279292 0.0 1017386
21:00−18e239680 0.0 101976